User: anonymous
Location: Deer Lake
(49.1830°N, 57.4330°W)
Time: 11:14:26
(UTC-02:-30)
Language:

Cosmos 1707 - Orbit

View from above orbital plane
View from above orbital plane
View from above satellite
View from above satellite

Ground track
Ground track

The orbit data is extracted from the following two-line orbital elements,

1 16326U 85113A   14233.32779354  .00000978  00000-0  60640-4 0  9847
2 16326 082.5121 138.4809 0012120 253.5708 106.4189 15.08568780561603
Epoch (UTC): 21 August 2014 07:52:01
Eccentricity: 0.0012120
inclination: 82.5121°
perigee height: 532 km
apogee height: 549 km
right ascension of ascending node: 138.4809°
argument of perigee: 253.5708°
revolutions per day: 15.08568780
mean anomaly at epoch: 106.4189°
orbit number at epoch: 56160

The dashed part of the orbit path shows where the satellite is in the earth's shadow,  

DLR